Powrót do katalogu

GAOFEN 9 05

AktywnyNaukaSSO
NORAD 46232·PAYLOAD·🇨🇳 China

Wystrzelony Aug 23, 2020 z Jiuquan Satellite Launch Center

Loading…

Następne Przeloty (najbliższe 24 godziny)

TLE

ŚwieżeSource: Space-Track

Epoka: Sep 14, 2026, 14:03 UTC

1 46232U 20058A   26257.58607473  .00006489  00000-0  20406-3 0  9996
2 46232  97.2008 295.5498 0009453 127.7725 232.4376 15.33256864337305

Śledź GAOFEN 9 05 w czasie rzeczywistym z AllMySat

Download on the App Store